カタログに戻る

FALCON 9 R/B

運用中GTO
NORAD 43179·ROCKET BODY·🇺🇸 United States

打ち上げ Jan 31, 2018 から Cape Canaveral Space Force Station

Loading…

TLE

経年Source: Space-Track

元期: Sep 14, 2026, 16:41 UTC

1 43179U 18013B   26257.69582791  .00018431  79789-6  10299-2 0  9992
2 43179  23.9051  64.6892 7156029 349.4936   1.1027  2.47413204 56660

AllMySatでFALCON 9 R/Bをリアルタイム追跡

Download on the App Store